Other Surface Observations
Issued by NWS

Home | Current Version | Previous Version | Text Only | Print | Product List | Glossary On
Versions: 1 2 3 4 5 6 7 8 9 10 11 12 13 14 15 16 17 18 19 20 21 22 23 24 25 26 27 28 29 30 31 32 33 34 35 36 37 38 39 40 41 42 43 44 45 46 47 48 49 50
000
SXUS52 KTAE 300118
OSOTAE
OSOTAE
North Florida/South Alabama/Southwest Georgia Weather Roundup
National Weather Service Tallahassee Florida
900 PM EDT SUN MAR 29 2015

Note: "fair" indicates few or no clouds below 12,000 feet with no
significant weather and/or obstructions to visibility.

!FLZ017-115-028-034-025-300200
...North Florida...

CITY           SKY/WX    TMP DP  RH WIND       PRES   REMARKS
TALLAHASSEE    PTCLDY    59  40  49 S3        30.30R
APALACHICOLA   CLEAR     61  44  53 S8        30.30F
PERRY          CLEAR     54  44  69 CALM      30.31F
CROSS CITY       N/A     56  43  61 SW3       30.32R
JACKSONVILLE   CLEAR     49  39  68 E6        30.35S
$$

!FLZ112-006-005-002-011-300200
...Florida Panhandle...

CITY           SKY/WX    TMP DP  RH WIND       PRES   REMARKS
MARIANNA       CLEAR     61  44  53 S5        30.27R
BONIFAY        FAIR      59  42  53 S6        30.29R
PANAMA CITY NW FAIR      56  46  69 S5        30.29R
TYNDALL AFB    CLEAR     59  46  63 S10       30.29S
TYND DRONE APT FAIR      58  48  70 S9        30.29S
DE FUNIAK SPR  FAIR      56  45  67 S5        30.29S
EGLIN AFB      PTCLDY    61  50  66 S9        30.28S
DESTIN         CLEAR     63  50  62 S9        30.28S
HURLBURT       PTCLDY    62  49  61 S10       30.27S
CRESTVIEW      CLEAR     57  46  66 S3        30.30R
PENSACOLA      MOCLDY    62  54  74 S10       30.26F
$$

!ALZ063-066-300200
...South Alabama...

CITY           SKY/WX    TMP DP  RH WIND       PRES   REMARKS
DOTHAN         CLEAR     58  41  53 SE5       30.29S
OZARK CAIRNS   CLEAR     60  40  49 SW7       30.27R
FT RUCKER HELI CLEAR     59  41  51 CALM      30.25R
RUCKER HELI 3  FAIR      61  42  50 SW6       30.27R
RUCKER HELI 2  FAIR      59  40  49 CALM      30.26R
FLORALA APT    CLEAR     57  44  62 SW8       30.29R
ANDALUSIA      CLEAR     63  43  48 SW5       30.26R
TROY           CLEAR     57  41  55 SE3       30.25S
EUFALA         FAIR      52  39  61 CALM      30.27R
MOBILE         MOCLDY    61  55  81 SE10      30.25F
$$

!GAZ120>161-300200
...Southwest and South Central Georgia...

CITY           SKY/WX    TMP DP  RH WIND       PRES   REMARKS
THOMASVILLE    FAIR      55  41  58 CALM      30.30F
BAINBRIDGE     CLEAR     59  45  58 CALM      30.28S
MOODY AFB      CLEAR     52  37  55 E2        30.30R
VALDOSTA       CLEAR     51  39  63 CALM      30.31R
MOULTRIE       CLEAR     54  41  62 CALM      30.30F
BLAKELY        CLEAR     55  43  62 CALM      30.28S
ALBANY         CLEAR     55  33  43 SE6       30.30S
TIFTON         FAIR      50  37  61 SE3       30.29F
FITZGERALD     FAIR      47  39  73 CALM      30.32F
CORDELE        FAIR      55  30  37 SE3       30.30S
AMERICUS       FAIR      50  36  57 CALM      30.30R
HOMERVILLE     FAIR      52  43  71 CALM      30.32R
$$

!GMZ750-755-770-775-300200
...Coastal and Buoy Obs...

STATION/POSITION TIME  TEMP    WIND        PRES    VSBY  WAVE
                       AIR SEA DIR/SP/G                  HT/PER
                 (UTC) (F)     (DEG/KT/KT) (MB)    (MI)  (FT/S)
KEATON BEACH     0100   61     220/  2/  3 1026.4F
CEDAR KEY        0100   60     330/  3/  5 1026.9S
C TOWER          0100   60     160/  9/ 10 1026.0F
APALACHICOLA BUO 0050   62 68   70/  8/ 10 1026.3F         2/ 5
PANAMA CITY BUOY 0050   65 75  130/ 12/ 16 1025.8F         2/ 5
MOBILE BUOY      0050   69 71  170/ 16/ 19 1024.6F         3/ 5
ORANGE BCH AL BU 0050   67 67  160/ 14/ 17 1023.8F         3/ 5
$$



USA.gov is the U.S. government's official web portal to all federal, state and local government web resources and services.